TALLINN current weather conditions

sailwx.info

Wind from 130 at 12 knots

Air temperature 2.0° C
Visibility: greater than 5.4 NM
Dewpoint 1.0° C
Present weather: Light rain.

Last reported at 2015-Mar-30 14:20 UTC.
Time now 2015-Mar-30 16:14 UTC

Location: N 59°24' E 024°49'.
View on Google Maps.

See reports from other nearby stations

  
Tides and Currents Weather Stations Pressure Air Temp Water Temp Dewpoint Dewpoint Depression Visibility Wind Speed Wind Dir Waves Ship Positions
date/time (UTC)wind fromknots sea level pressurealtimeterstation pressurevisibilityair tempwater tempwave heightnotes
2015-Mar-30 15:20 130 13 gusting 24 5.4 2.0 Light rain.
2015-Mar-30 14:50 130 13 5.4 2.0 Light rain.
2015-Mar-30 14:20 130 12 5.4 2.0 Light rain.
2015-Mar-30 13:50 130 14 5.4 3.0 Light rain.
2015-Mar-30 13:20 120 12 5.4 3.0 Light rain.
2015-Mar-30 12:50 130 13 5.4 2.0 Light rain.
2015-Mar-30 12:20 130 14 5.4 2.0 Light rain.
2015-Mar-30 11:50 130 16 gusting 26 5.4 2.0 Light rain.
2015-Mar-30 11:20 130 15 gusting 27 5.4 2.0 Light rain.
2015-Mar-30 10:50 130 14 gusting 24 4.9 2.0 Light snow.
2015-Mar-30 10:20 140 13 4.9 1.0 Light snow.
2015-Mar-30 09:50 140 12 gusting 22 4.9 1.0 Light snow.
2015-Mar-30 09:20 140 14 4.9 1.0 Light snow.
2015-Mar-30 08:50 140 14 gusting 27 4.3 1.0 Light snow.
2015-Mar-30 08:20 140 15 gusting 25 4.3 1.0 Light snow.
2015-Mar-30 07:50 140 14 4.3 1.0 Light snow.
2015-Mar-30 07:20 140 16 4.3 1.0 Light snow.
2015-Mar-30 06:50 140 14 4.3 1.0 Light snow.
2015-Mar-30 06:20 140 14 3.8 1.0 Light snow.
2015-Mar-30 05:50 140 13 2.3 1.0 Snow.
2015-Mar-30 05:20 150 14 gusting 25 2.1 1.0 Snow.
2015-Mar-30 04:50 150 13 1.0 1.0 Heavy snow showers.
2015-Mar-30 04:20 150 12 1.4 1.0 Snow.
2015-Mar-30 03:50 150 13 gusting 25 3.2 1.0 Light snow rain.
2015-Mar-30 03:20 150 14 5.4 2.0 Light rain.
2015-Mar-30 02:50 160 14 5.4 2.0
2015-Mar-30 02:20 150 13 5.4 2.0
2015-Mar-30 01:50 150 14 4.3 2.0 Light rain.
2015-Mar-30 01:20 160 14 5.4 3.0
2015-Mar-30 00:50 160 14 gusting 26 5.4 3.0
2015-Mar-30 00:20 160 15 5.4 3.0 Light rain.
2015-Mar-29 23:50 160 13 5.4 3.0
2015-Mar-29 23:20 160 14 gusting 24 5.4 3.0
2015-Mar-29 22:50 160 15 5.4 3.0 Light rain.
2015-Mar-29 22:20 160 15 gusting 25 5.4 4.0
2015-Mar-29 21:50 160 14 5.4 4.0
2015-Mar-29 21:20 150 13 gusting 24 5.4 4.0
2015-Mar-29 20:50 150 13 gusting 23 5.4 4.0
2015-Mar-29 20:20 160 12 5.4 4.0
2015-Mar-29 19:50 160 12 5.4 4.0
2015-Mar-29 19:20 160 13 5.4 4.0
2015-Mar-29 18:50 160 15 4.9 4.0
2015-Mar-29 18:20 150 14 4.9 3.0
2015-Mar-29 17:50 150 13 3.2 3.0 Light drizzle.
2015-Mar-29 17:20 150 13 2.5 3.0 Light drizzle. Mist.
2015-Mar-29 16:50 150 11 1.8 4.0 Light drizzle. Mist.
2015-Mar-29 16:20 150 13 gusting 23 1.5 4.0 Drizzle. Mist.
2015-Mar-29 15:50 140 13 1.3 4.0 Drizzle. Mist.
2015-Mar-29 15:20 140 11 2.3 4.0 Drizzle rain. Mist.
2015-Mar-29 14:50 160 10 5.4 6.0
2015-Mar-29 14:20 150 12 5.4 6.0
2015-Mar-29 13:50 160 12 5.4 7.0
2015-Mar-29 13:20 150 12 5.4 7.0
2015-Mar-29 12:50 160 11 5.4 7.0
2015-Mar-29 12:20 160 10 5.4 6.0
2015-Mar-29 11:50 160 11 5.4 6.0
2015-Mar-29 11:20 150 10 5.4 6.0
2015-Mar-29 10:50 170 11 5.4 6.0
2015-Mar-29 10:20 160 11 5.4 6.0
2015-Mar-29 09:50 160 10 5.4 5.0
2015-Mar-29 09:20 150 9 5.4 4.0
2015-Mar-29 08:50 160 11 5.4 4.0
2015-Mar-29 08:20 150 9 5.4 3.0
2015-Mar-29 07:50 170 9 5.4 3.0
2015-Mar-29 07:20 170 9 5.4 2.0
2015-Mar-29 06:50 160 9 5.4 2.0
2015-Mar-29 06:20 160 10 4.9 2.0
2015-Mar-29 05:50 150 7 3.2 1.0
2015-Mar-29 05:20 160 7 2.0 1.0 Mist.
2015-Mar-29 04:50 150 8 2.5 1.0 Mist.
2015-Mar-29 04:20 150 7 2.7 1.0 Mist.
2015-Mar-29 03:50 160 7 2.7 1.0 Mist.
2015-Mar-29 03:20 150 7 3.2 1.0
2015-Mar-29 02:50 150 7 2.7 1.0 Mist.
2015-Mar-29 02:20 160 5 2.7 1.0 Mist.
2015-Mar-29 01:50 160 6 3.2 1.0
2015-Mar-29 01:20 180 6 3.2 1.0
2015-Mar-29 00:50 170 5 1.5 1.0 Mist.
2015-Mar-29 00:20 180 6 0.3 1.0 Fog.
2015-Mar-28 23:50 190 5 0.2 1.0 Fog.
2015-Mar-28 23:20 190 4 1.2 1.0 Mist. Patches of fog.
2015-Mar-28 22:50 180 3 2.5 1.0 Mist. Patches of fog.
2015-Mar-28 22:20 180 3 4.9 1.0 Mist. Patches of fog.
2015-Mar-28 21:50 180 3 5.4 2.0
2015-Mar-28 21:20 180 4 5.4 2.0
2015-Mar-28 20:50 170 3 4.9 2.0
2015-Mar-28 20:20 170 3 3.2 2.0
2015-Mar-28 19:50 210 3 5.4 3.0
2015-Mar-28 19:20 190 5 5.4 3.0
2015-Mar-28 18:50 190 5 5.4 3.0
2015-Mar-28 18:20 180 3 5.4 3.0
2015-Mar-28 17:50 160 4 5.4 3.0
2015-Mar-28 17:20 160 4 5.4 3.0
2015-Mar-28 16:50 150 4 5.4 4.0
2015-Mar-28 16:20 200 3 5.4 4.0 Light rain.